Vertical_Velocity
2 -3 -3 -1 -3 1 -3 -3 -3 -0 -5 -3 -2 -0 -2 -1 -1 -1 -0 -2 -4 -2 -2 -5 -5 -2 -5 -5 -4 -5 -4 -0 1 -3 -1 -6 1 6 -6 1 0 18 6
4 -4 -2 -3 -0 -2 -1 -0 -3 -2 -4 0 -2 -1 2 0 -4 -1 -1 -0 -2 -2 -3 -4 -2 -0 -7 -4 -5 -7 -2 -3 2 -0 -2 -3 2 0 -4 -2 6 0 19
1 0 -4 -9 -3 -1 1 -4 -9 -3 -1 -1 -3 -3 1 4 2 1 0 -2 -0 1 -2 -7 -0 -3 -4 -8 -4 -5 -5 -3 -2 1 -3 -0 -4 3 -3 -1 -10 9 3
-3 -0 -0 -3 -5 2 -1 -4 -1 -1 -1 -6 -6 -3 2 3 3 2 -1 -2 -2 -2 -1 -10 2 -4 -3 1 -5 -6 -3 -6 -5 -1 -0 -3 -2 5 -1 1 -0 -4 0
-9 6 -4 -3 -7 -3 -0 -4 -1 -0 -4 -3 -3 -2 -2 -2 1 1 -2 -5 -2 -2 -3 -10 -2 -4 0 -1 2 -3 -2 -2 -5 -3 0 -2 -2 0 4 -2 -3 -3 -3
-2 -1 2 -3 -8 1 -6 -14 -2 0 -1 -3 -2 -2 -2 -5 -2 -1 2 -3 -4 -2 3 -4 -6 -2 -2 1 -3 1 -3 -4 -2 -3 -4 1 -2 2 0 -1 -5 7 27
1 0 2 7 11 1 -6 -3 -1 -2 1 1 1 -2 -4 -6 -8 -9 -4 -5 -1 -3 -5 -5 -2 -5 -2 2 -2 -3 -3 -1 -3 -6 -2 -3 -2 3 2 -2 -1 -2 21
3 3 0 8 -2 2 1 -4 5 -6 -2 1 -0 -5 -3 -6 -7 -3 -4 -5 -5 -5 -2 -5 0 -2 2 -2 -2 -4 -4 -3 1 -1 -2 -3 -1 -5 5 2 -5 2 4
-5 4 6 -6 -4 17 28 4 3 5 -4 -2 -0 4 -2 0 -3 -1 -9 -2 -3 1 0 0 -0 1 0 2 -2 -4 -4 -5 2 2 2 -3 -2 -3 -1 -0 -3 1 2
1 11 78 -9 1 13 25 8 -7 -4 -9 -1 -5 2 -2 3 -9 3 -2 -1 2 4 7 -3 0 3 -2 3 -2 -2 -1 -7 -3 2 -0 3 -3 -2 1 4 -5 1 -2
-50 30 70 -5 38 -14 -9 3 -13 -13 -6 -4 2 0 -3 -5 -3 -3 -6 -3 -4 -2 3 -1 -4 3 -0 -0 1 -3 -1 -2 -3 -2 3 2 -0 -4 -2 4 -3 2 2
-20 12 46 5 18 4 -12 2 -3 -6 -4 -1 2 1 -3 -1 -5 -7 -3 -2 -2 -3 0 -2 -0 0 2 -3 1 -2 0 1 -0 -2 -2 -3 -1 -1 -3 0 3 2 -3
18 55 28 13 4 -9 -10 -4 4 -2 1 8 3 -5 -1 0 -2 -2 -0 -1 -0 -1 -1 1 2 3 -1 -0 -1 1 2 1 1 -1 -5 -4 1 -2 -2 -1 -0 0 2
2 6 15 -16 -0 -6 -11 -12 -3 7 5 3 -4 -1 -3 -0 -4 -0 1 -1 0 1 -1 -1 1 3 -1 0 1 -1 4 2 2 -2 -2 -4 1 -0 -3 -1 -1 -1 5
-11 -1 -11 -5 2 2 3 6 3 -3 2 -3 -4 -7 -6 2 -3 -5 -3 0 -2 -1 -0 1 0 -0 0 -0 1 0 1 2 3 -3 -4 -3 -2 2 -2 0 -4 2 3
3 -13 4 4 2 3 -8 -13 3 6 -6 -14 -16 -3 4 -6 1 2 1 1 -2 -4 2 1 1 1 1 -1 0 1 0 1 0 1 -4 -4 -1 1 1 0 -1 -1 2
-2 2 8 -1 1 -2 9 11 -6 -22 -12 -11 -3 -2 -5 0 -4 -3 -2 1 -2 -0 -3 0 1 2 0 1 0 0 0 -0 1 1 -1 -4 -3 0 3 0 1 2 2
-5 6 -5 1 -1 1 1 -4 -11 3 -4 -10 -7 -5 -9 -6 -4 -2 -0 1 1 -2 -0 2 4 3 1 1 1 0 0 -1 -0 0 0 -2 -3 -2 2 -0 0 2 2
6 -5 -5 -8 1 -4 1 -4 -4 -5 -3 -2 -5 -8 -5 -7 -4 -2 -1 2 2 1 1 3 3 1 1 1 1 1 1 -0 -1 -1 0 -1 -3 -1 -2 0 3 3 2
1 6 2 5 -6 -6 -2 -6 -9 -5 -2 -3 -3 -2 -2 -5 -3 -3 -2 -1 -1 -0 -0 1 1 1 -0 0 0 1 1 0 -1 -1 -1 -1 -1 -1 -2 -1 1 2 -1
-3 -3 -1 -3 -5 -4 -5 -7 -4 -2 -3 -5 -4 -2 -1 2 2 0 1 -0 -0 -0 -1 -0 1 0 1 -1 1 1 1 0 -0 -0 -0 -1 0 1 -1 0 1 1 1
-5 -4 -4 -5 -4 -5 -4 -2 -1 -4 -3 -3 -4 -3 -2 -0 -0 -1 -1 -0 -1 -0 0 0 0 1 1 1 0 2 1 0 0 -0 -0 1 1 1 2 1 0 -0 2
-3 -6 -6 -4 -3 -1 -2 -4 -3 -2 -2 -1 -1 -1 -2 -2 -2 -1 -1 -1 -1 0 -1 -1 0 0 -0 1 0 1 1 -0 0 1 0 0 0 -0 0 -0 -0 -1 1
-3 -2 -2 -1 1 -0 -2 -3 -2 -1 -1 -1 -1 -2 -1 -1 -1 -1 -1 -1 -1 -1 -1 -2 -2 -1 -0 -0 -0 0 0 1 1 1 1 1 1 1 1 0 -0 -0 -0
-1 -2 -1 -0 -0 -1 -1 -2 -1 -2 -1 0 -2 -3 -2 -2 -1 -2 -1 -0 -1 -0 -1 -3 -3 -3 -2 -1 -0 -1 -0 1 1 1 0 0 1 1 0 -0 0 -1 -0
-1 -0 -0 -1 -1 -1 -1 -1 -1 -1 -1 -2 -1 -1 -1 -2 -2 -2 -2 -2 -2 -2 0 -1 -2 -2 -2 -2 -1 -1 -0 0 1 1 0 0 1 1 1 2 1 -1 -0
Height
5806 5808 5806 5804 5802 5799 5798 5798 5795 5792 5788 5785 5783 5780 5777 5776 5774 5771 5768 5765 5762 5759 5756 5753 5750 5747 5744 5741 5739 5738 5737 5739 5742 5741 5740 5739 5738 5739 5737 5739 5740 5739 5741
5796 5796 5795 5790 5790 5788 5789 5787 5786 5784 5780 5777 5775 5774 5769 5766 5765 5761 5758 5755 5753 5749 5746 5743 5739 5736 5733 5730 5727 5725 5725 5725 5728 5730 5730 5729 5728 5729 5729 5731 5733 5734 5736
5786 5785 5783 5782 5780 5778 5779 5777 5777 5773 5770 5768 5767 5765 5763 5756 5755 5752 5749 5746 5743 5739 5734 5732 5728 5724 5720 5718 5716 5713 5712 5711 5712 5716 5717 5719 5718 5718 5720 5722 5725 5725 5728
5774 5774 5773 5772 5771 5771 5770 5767 5763 5762 5761 5758 5756 5754 5752 5748 5745 5742 5738 5735 5731 5726 5721 5718 5715 5711 5708 5705 5703 5700 5699 5699 5699 5701 5704 5705 5708 5708 5710 5712 5715 5717 5720
5765 5765 5764 5762 5763 5760 5758 5755 5753 5752 5750 5747 5744 5741 5738 5734 5732 5729 5725 5721 5717 5712 5708 5703 5701 5697 5695 5692 5690 5688 5688 5687 5687 5688 5690 5692 5694 5696 5698 5701 5705 5708 5710
5757 5756 5754 5751 5750 5748 5743 5741 5740 5738 5736 5735 5731 5727 5724 5720 5718 5715 5711 5706 5701 5696 5692 5689 5686 5683 5680 5677 5676 5674 5674 5674 5675 5675 5676 5678 5681 5683 5685 5691 5694 5699 5704
5745 5744 5743 5740 5738 5736 5733 5729 5727 5724 5724 5723 5720 5716 5711 5707 5703 5699 5695 5690 5685 5682 5678 5675 5671 5668 5666 5662 5661 5660 5659 5659 5659 5661 5662 5665 5667 5671 5675 5679 5685 5691 5692
5734 5731 5728 5727 5725 5722 5720 5716 5715 5711 5709 5706 5704 5702 5697 5691 5686 5682 5677 5672 5669 5665 5662 5658 5656 5652 5650 5647 5645 5643 5642 5644 5644 5645 5647 5650 5653 5656 5661 5668 5673 5677 5681
5722 5717 5715 5711 5710 5711 5701 5701 5701 5700 5696 5693 5688 5683 5679 5673 5668 5662 5659 5654 5651 5647 5644 5641 5639 5637 5634 5632 5629 5627 5626 5627 5628 5629 5631 5634 5638 5643 5647 5653 5660 5666 5671
5708 5704 5695 5697 5698 5696 5686 5689 5686 5682 5679 5676 5673 5667 5662 5656 5649 5645 5640 5636 5633 5629 5625 5623 5622 5621 5618 5617 5615 5614 5613 5613 5614 5614 5617 5620 5624 5630 5635 5640 5646 5653 5659
5690 5688 5688 5688 5684 5675 5671 5674 5670 5667 5666 5662 5657 5651 5644 5635 5631 5627 5624 5619 5615 5612 5608 5605 5603 5603 5601 5601 5602 5601 5601 5600 5600 5601 5604 5609 5612 5617 5622 5629 5634 5640 5647
5685 5679 5668 5671 5663 5666 5665 5662 5658 5653 5651 5645 5641 5635 5626 5620 5614 5608 5603 5598 5594 5590 5586 5583 5581 5581 5582 5583 5585 5586 5587 5587 5588 5589 5592 5596 5601 5606 5610 5616 5624 5629 5635
5671 5664 5661 5666 5667 5658 5656 5650 5645 5640 5634 5631 5624 5622 5615 5606 5597 5592 5587 5581 5576 5571 5566 5563 5561 5561 5562 5564 5566 5569 5572 5574 5576 5578 5581 5585 5590 5594 5599 5605 5613 5619 5624
5655 5655 5654 5653 5652 5651 5645 5638 5634 5631 5623 5618 5616 5609 5601 5594 5588 5583 5576 5570 5563 5557 5552 5547 5543 5542 5545 5546 5550 5553 5558 5561 5563 5565 5569 5574 5579 5584 5589 5594 5602 5609 5614
5647 5645 5646 5643 5638 5635 5632 5628 5619 5614 5617 5612 5603 5598 5594 5587 5579 5573 5565 5557 5550 5543 5538 5533 5529 5526 5527 5530 5535 5539 5543 5548 5551 5554 5557 5563 5568 5574 5580 5585 5592 5599 5605
5639 5637 5635 5632 5629 5624 5619 5615 5615 5612 5605 5598 5595 5590 5585 5578 5572 5564 5555 5548 5540 5533 5526 5520 5516 5513 5512 5515 5520 5525 5531 5535 5539 5543 5547 5552 5557 5564 5570 5577 5584 5591 5596
5631 5630 5627 5625 5620 5616 5614 5609 5601 5593 5591 5590 5586 5581 5575 5569 5562 5555 5548 5540 5533 5526 5519 5511 5506 5503 5502 5504 5509 5515 5521 5525 5529 5533 5537 5541 5547 5553 5561 5568 5575 5582 5589
5623 5619 5617 5615 5611 5607 5604 5597 5589 5587 5585 5582 5577 5572 5566 5560 5553 5545 5538 5533 5526 5518 5513 5507 5501 5497 5496 5498 5502 5507 5511 5515 5519 5523 5527 5531 5537 5544 5551 5559 5567 5574 5581
5617 5612 5609 5606 5602 5596 5586 5583 5582 5580 5578 5574 5569 5563 5558 5551 5543 5537 5532 5527 5520 5513 5507 5502 5496 5493 5492 5493 5496 5500 5504 5507 5510 5514 5517 5522 5527 5535 5542 5550 5558 5566 5574
5605 5602 5598 5591 5587 5583 5579 5577 5574 5571 5568 5564 5560 5556 5551 5544 5537 5530 5525 5520 5514 5509 5503 5498 5493 5490 5488 5489 5490 5493 5496 5499 5502 5505 5508 5513 5518 5525 5533 5541 5549 5557 5565
5596 5589 5585 5582 5579 5576 5573 5569 5566 5562 5559 5555 5551 5548 5544 5539 5532 5526 5520 5514 5509 5503 5499 5494 5490 5487 5485 5484 5484 5486 5489 5491 5493 5496 5500 5504 5510 5517 5524 5532 5540 5548 5557
5590 5585 5579 5575 5572 5568 5565 5561 5557 5553 5550 5547 5544 5541 5537 5532 5527 5522 5516 5510 5504 5499 5493 5489 5486 5483 5481 5479 5479 5480 5483 5485 5487 5490 5494 5498 5504 5510 5517 5524 5532 5540 5549
5585 5579 5573 5569 5565 5562 5558 5554 5549 5546 5542 5539 5537 5534 5531 5527 5522 5517 5512 5506 5500 5494 5488 5484 5480 5477 5475 5473 5473 5474 5477 5480 5482 5485 5489 5494 5499 5505 5511 5518 5525 5533 5542
5579 5573 5569 5564 5560 5556 5551 5546 5542 5538 5535 5532 5529 5527 5524 5521 5517 5513 5507 5502 5496 5489 5483 5478 5474 5470 5467 5466 5466 5468 5470 5474 5478 5481 5485 5490 5495 5500 5506 5512 5519 5527 5535
5573 5567 5563 5558 5554 5550 5545 5540 5535 5531 5527 5524 5522 5520 5517 5515 5511 5507 5502 5497 5491 5485 5478 5472 5467 5462 5457 5456 5457 5460 5464 5469 5473 5478 5482 5487 5492 5497 5502 5508 5514 5521 5528
5566 5560 5556 5552 5548 5544 5540 5534 5529 5525 5520 5517 5515 5513 5510 5508 5505 5501 5496 5491 5486 5479 5473 5467 5460 5454 5448 5446 5448 5453 5458 5464 5469 5474 5479 5484 5489 5494 5499 5505 5510 5516 5523